Location: *
(33.8649°S, 62.1526°E)
Time: 16:17:04
(UTC+00:00)

USA 306 - Pass Details

Date: 17 January 2021
Orbit: 569 x 574 km, 54.0° (Epoch: 02 March)

Event Time Altitude Azimuth Distance (km) Brightness Sun altitude
Rises 23:32:09 0° 228° (SW) 2,803 6.3 -16.1°
Reaches altitude 10° 23:34:27 10° 233° (SW) 1,897 5.4 -15.7°
Maximum altitude 23:38:40 53° 309° (NW) 712 3.0 -15.0°
Drops below altitude 10° 23:42:49 10° 26° (NNE) 1,872 5.4 -14.3°
Sets 23:45:05 0° 30° (NNE) 2,761 6.3 -14.0°
